Regional Weather Roundup
Issued by NWS Wakefield, VA

Home | Current Version | Previous Version | Graphics & Text | Print | Product List | Glossary On
Versions: 1 2 3 4 5 6 7 8 9 10 11 12 13 14 15 16 17 18 19 20 21 22 23 24 25 26 27
000
ASUS41 KAKQ 201415
RWRAKQ

REGIONAL WEATHER ROUNDUP
NATIONAL WEATHER SERVICE WAKEFIELD VA
1000 AM EDT WED SEP 20 2017

Note: "fair" indicates few or no clouds below 12,000 feet with no
significant weather and/or obstructions to visibility. * = Denotes
station may not report precipitation (e.g., rain,snow,etc.),
thunder or fog.

VAZ042-051-052>054-056-201500-
NORTHERN VIRGINIA

CITY           SKY/WX    TMP DP  RH WIND       PRES   REMARKS
WASH NATIONAL  CLOUDY    75  64  68 NW9       29.99R
DULLES         MOSUNNY   73  65  75 NW8       30.00R
FORT BELVOIR   CLOUDY    75  63  66 NW8       29.98S
QUANTICO       CLOUDY    76  66  71 N10       29.99S
FREDERICKSBRG* SUNNY     76  65  69 NW6       29.98S
STAFFORD*      SUNNY     76  66  71 NW6       30.03R
WARRENTON      CLOUDY    78  62  56 N5        29.99F
CULPEPER*      SUNNY     76  65  70 N5        30.01S
MANASSAS*      SUNNY     75  65  70 NE6       30.00S
LEESBURG*      SUNNY     75  68  78 N7        30.02R
WINCHESTER     SUNNY     70  63  78 CALM      30.03R
FRONT ROYAL*   SUNNY     70  64  83 SW7       30.02S
LURAY*         SUNNY     66  64  94 CALM      30.05R
$$

VAZ048-049-060>072-079>083-201500-
CENTRAL AND SOUTH CENTRAL VIRGINIA

CITY           SKY/WX    TMP DP  RH WIND       PRES   REMARKS
RICHMOND       MOSUNNY   79  64  60 NW7       29.99R
CHESTERFIELD*  NOT AVBL
PETERSBURG*    SUNNY     75  64  67 NW5       30.01R
HANOVER        SUNNY     77  65  66 NW7       30.00R
TAPPAHANNOCK*  SUNNY     74  60  61 W3        29.99R
QUINTON*       FAIR      76  66  72 NW6       29.98S
CHARLOTTSVILLE SUNNY     75  66  73 CALM      30.01S
GORDONSVILLE*  SUNNY     77  67  71 CALM      30.00S
ORANGE*        SUNNY     73  64  73 CALM      30.01R
LOUISA*        SUNNY     75  66  73 W5        30.01R
BUMPASS*       NOT AVBL
FARMVILLE*     SUNNY     77  69  74 CALM      30.01S
CREWE*         FAIR      77  71  80 CALM      30.02R
FORT PICKETT*  FAIR      77  67  72 CALM      30.02R
CHASE CITY*    FAIR      74  72  96 CALM      30.03R
CLARKSVILLE*   FAIR      72  68  88 CALM      30.02S
SOUTH HILL*    SUNNY     76  69  78 CALM      30.08R
LAWRENCEVILLE* FAIR      76  67  72 CALM      30.02R
EMPORIA*       SUNNY     75  64  69 NW3       30.02S
$$

VAZ088>098-201500-
SOUTHEAST VIRGINIA

CITY           SKY/WX    TMP DP  RH WIND       PRES   REMARKS
NORFOLK        PTSUNNY   79  66  64 VRB6      29.96R
VIRGINIA BEACH MOSUNNY   78  66  66 NW8       29.95R
NORFOLK NAVAL  PTSUNNY   77  67  71 W9        29.98R
WEST POINT*    MOSUNNY   75  64  69 NW5       29.99R
SALUDA*        PTSUNNY   74  68  83 W8        29.96S
NEWPORT NEWS   CLOUDY    76  65  68 NW6       29.98R
LANGLEY AFB    PTSUNNY   75  67  75 NW9       29.97R
FORT EUSTIS    PTSUNNY   75  66  73 NW7       29.96R
WILLIAMSBURG*  SUNNY     75  66  73 CALM      29.99R
HR EXEC AP*    FAIR      76  67  73 VRB5      29.99R
FRANKLIN*      SUNNY     75  65  70 NW5       30.00R
US460-WAKEFLD  SUNNY     76  66  71 VRB6      30.00R
$$

VAZ020-022-025-037-045-201500-
WEST CENTRAL AND SOUTHWEST VIRGINIA

CITY           SKY/WX    TMP DP  RH WIND       PRES   REMARKS
STAUNTON*      SUNNY     67  63  88 CALM      30.08S
WAYNESBORO*    SUNNY     69  65  86 CALM      30.07S
HOT SPRINGS VA SUNNY     66  57  71 W7        30.18R
LYNCHBURG      SUNNY     77  65  66 VRB3      30.04R
DANVILLE       SUNNY     74  69  85 CALM      30.04R
SOUTH BOSTON*  FAIR      73  67  82 CALM      30.03R
MARTINSVILLE   PTSUNNY   68  65  90 CALM      30.09R
ROANOKE        MOSUNNY   74  64  71 CALM      30.09R
BLACKSBURG     PTSUNNY   71  64  78 CALM      30.15R
DUBLIN*        SUNNY     70  65  83 SW3       30.14R
MARION*        SUNNY     68  62  80 SW7       30.17R
HILLSVILLE*    CLOUDY    65  59  79 CALM      30.15R
RICHLANDS*     FAIR      69  62  78 CALM      30.16R
WISE*          SUNNY     72  64  78 W3        30.17R
ABINGDON*      MOSUNNY   72  64  75 CALM      30.14R
$$

MDZ021>025-VAZ099-100-201500-
SOUTHERN MARYLAND AND THE DELMARVA PENINSULA

CITY           SKY/WX    TMP DP  RH WIND       PRES   REMARKS
PATUXENT RIVER MOSUNNY   77  67  71 NW14      29.95R
BAY BRIDGE APT CLOUDY    75  66  73 NW7       29.95S
LEONARDTOWN    CLOUDY    73  64  73 NW6       29.97S
DOVER          SUNNY     76  76 100 NW14      29.89S
GEORGETOWN     SUNNY     77  65  66 N9        29.91R
EASTON         PTSUNNY   77  64  65 N9        29.97R
CAMBRIDGE      SUNNY     77  66  69 NW15      29.93S
SALISBURY      SUNNY     77  67  71 NW15G21   29.91S
OCEAN CITY     SUNNY     75  68  78 N15G22    29.90R
WALLOPS ISLAND MOSUNNY   76  67  73 NW13      29.92R
ACCOMACK*      MOSUNNY   76  69  77 NW15G22   29.93S
$$

NCZ012>017-030>032-201500-
NORTH CENTRAL AND EASTERN NORTH CAROLINA

CITY           SKY/WX    TMP DP  RH WIND       PRES   REMARKS
ROANOKE RAPIDS FAIR      77  68  73 MISG      30.02R
RALEIGH        MOSUNNY   77  68  73 W3        30.04R
ELIZABETH CITY SUNNY     77  69  76 W12       29.98R
AHOSKIE*         N/A     74  67  77 NW3       30.01R
EDENTON*       SUNNY     78  67  70 CALM      30.00S
CURRITUCK*     SUNNY     74  66  75 NW7       29.98R
KILL DEVIL HLS PTSUNNY   72  65  80 CALM      29.96S
MANTEO         PTSUNNY   74  67  79 NW8       29.99R
CAPE HATTERAS  MOSUNNY   78  69  73 NW8       29.99R
TARBORO*       NOT AVBL
GOLDSBORO      SUNNY     78  73  83 W7        30.01R
WASHINGTON     SUNNY     78  68  71 W3        30.02R
GREENVILLE     SUNNY     77  68  73 W5        30.04R
NEW BERN       SUNNY     78  68  71 W7        30.03R
WILMINGTON     SUNNY     80  68  66 W6        30.03R
$$

VAZ048-201500-
ELSEWHERE

CITY           SKY/WX    TMP DP  RH WIND       PRES   REMARKS
HARRISBURG PA  SUNNY     75  63  66 NW10      29.98R
BALTIMORE      PTSUNNY   74  66  76 NW9       29.96R
ANNAPOLIS      MOSUNNY   78  68  71 NW8       29.95S
ANDREWS AFB    MOSUNNY   74  62  67 NW10      29.97R
PHILADELPHIA   MOSUNNY   75  63  66 N15       29.91S
HENDERSON NC   SUNNY     72  65  77 CALM      30.03S
GREENSBORO     PTSUNNY   77  68  73 CALM      30.05R
ROCKY MOUNT    SUNNY     76  69  79 SW6       30.02S
$$

VAZ100-201500-
MARINE

STATION/POSITION TIME  TEMP    WIND        PRES    WAVE   SWELL
                       AIR SEA DIR/SP/G            HT/PER HT/PER
                 (UTC) (F)     (DEG/KT/KT) (MB)    (FT/S) (FT/S)
BRANDYWINE LGT   1348   73     360/ 21/ 25 1012.3R
CAPE MAY NJ      1342   73 72  350/ 13/ 19 1011.4R
LEWES DE         1348   73 72  340/ 18/ 22 1012.1R
15NM E FENWICK I 1350   72 70  320/ 17/ 21 1011.6R   9/10   7/10
OCEAN-CITY-INLET 1348   73 73  350/ 12/ 17 1012.6R
WACHAPREAGUE VA  1348   78 73  320/  4/ 13 1013.4R
THOMAS POINT MD  1400   74 75  330/ 10/ 11   N/A
GOOSES REEF MD   1400   74 75  320/ 12/ 14 1015.3    0
COVE POINT MD    1348   74     340/ 16/ 19 1014.7R
SOLOMONS ISLAND  1348   74 76  320/  9/ 15 1013.9R
BISHOPS HEAD MD  1348   75 73  300/ 12/ 16 1013.9R
PINEY POINT MD   1336          340/ 14/ 15   N/A
POTOMAC MD       1400   75 75  320/ 14/ 16 1013.3    1/ 2
CAMBRIDGE MD     1348   77 75              1014.5R
LEWISETTA VA     1348   76 75  340/ 11/ 14 1014.4R
RAPPAHANNOCK LGT 1336          310/ 15/ 16 1014.4R
STINGRAY PT      1400   75 75  320/ 10/ 14 1014.8    1/ 3
YORK RVR RNG VA  1348   73     320/  9/ 10 1015.1R
YORKTOWN VA      1336   72 76  300/ 11/ 13 1014.5R
JAMESTOWN VA     1400      77  300/  8/ 10   N/A     0
DOMINION TERM VA 1336   73     310/ 11/ 13 1015.0R
KIPTOPEKE VA     1336      74  310/ 13/ 16   N/A
CHES BAY BRIDGE  1336   73 74  280/ 13/ 13 1014.5R
CAPE HENRY VA    1336   74     280/ 10/ 14   N/A
WILLOUBY STN VA  1336   73     270/ 12/ 13 1014.8R
S CRANEY ISL VA  1336   73     270/  6/ 11 1014.7R
CAPE HENRY BUOY  1400      74                N/A     5/11   3/11
1ST LANDING BUOY 1400   74 74              1014.4    3/ 5
64NM E OF VA BCH 1350   70 69  290/ 12/ 14 1013.6R  10/11   8/11
DUCK PIER NC     1336   74 74  280/  8/ 10 1014.3R
44100 DUCK FRF   1335      74                N/A     7/10   5/12
44056 DUCK FRF   1330      75                N/A     6/11   3/11
OREGON INLET NC  1336   74 73  280/ 10/ 13 1014.9R
HATTERAS NC      1336   76 75  300/ 12/ 15 1015.5R
DIAMOND SHLS NC  1350   76 74  300/ 12/ 14 1015.2R   5/11   5/11
CAPE LOOKOUT NC  1400   78     290/  8/ 10 1015.8S
$$




USA.gov is the U.S. government's official web portal to all federal, state and local government web resources and services.